Time,TemperatureF,DewpointF,PressureIn,WindDirection,WindDirectionDegrees,WindSpeedMPH,WindSpeedGustMPH,Humidity,HourlyPrecipIn,Conditions,Clouds,dailyrainin,SoftwareType,DateUTC
2013-02-23 00:00:00,31.0,27.6,30.09,NW,315,5.0,6.0,87,0.00,,---,0.00,VWS V14.00,2013-02-23 06:00:00,
2013-02-23 00:05:00,31.0,27.9,30.09,NW,315,3.0,4.0,88,0.00,,---,0.00,VWS V14.00,2013-02-23 06:05:00,
2013-02-23 00:10:00,31.0,27.9,30.09,NW,315,3.0,3.0,88,0.00,,---,0.00,VWS V14.00,2013-02-23 06:10:00,
2013-02-23 00:15:00,30.0,26.9,30.10,NNW,338,4.0,5.0,88,0.00,,---,0.00,VWS V14.00,2013-02-23 06:15:00,
2013-02-23 00:20:00,30.0,26.9,30.09,NNW,338,4.0,5.0,88,0.00,,---,0.00,VWS V14.00,2013-02-23 06:20:00,
2013-02-23 00:25:00,30.0,26.9,30.10,NNW,338,4.0,5.0,88,0.00,,---,0.00,VWS V14.00,2013-02-23 06:25:00,
2013-02-23 00:30:00,30.0,26.9,30.10,NNW,338,3.0,4.0,88,0.00,,---,0.00,VWS V14.00,2013-02-23 06:30:00,
2013-02-23 00:35:00,30.0,26.9,30.10,NNW,338,1.0,2.0,88,0.00,,---,0.00,VWS V14.00,2013-02-23 06:35:00,
2013-02-23 00:40:00,30.0,26.9,30.10,NNW,338,1.0,1.0,88,0.00,,---,0.00,VWS V14.00,2013-02-23 06:40:00,
2013-02-23 00:45:00,30.0,27.2,30.11,NNW,338,1.0,2.0,89,0.00,,---,0.00,VWS V14.00,2013-02-23 06:45:00,
2013-02-23 00:50:00,30.0,27.2,30.10,NNW,338,0.0,0.0,89,0.00,,---,0.00,VWS V14.00,2013-02-23 06:50:00,
2013-02-23 00:55:00,30.0,27.2,30.10,NNW,338,0.0,0.0,89,0.00,,---,0.00,VWS V14.00,2013-02-23 06:55:00,
2013-02-23 01:00:00,30.0,27.4,30.10,NNW,338,0.0,0.0,90,0.00,,---,0.00,VWS V14.00,2013-02-23 07:00:00,
2013-02-23 01:05:00,29.0,26.4,30.10,NNW,338,0.0,0.0,90,0.00,,---,0.00,VWS V14.00,2013-02-23 07:05:00,
2013-02-23 01:10:00,29.0,26.7,30.10,NNW,338,0.0,0.0,91,0.00,,---,0.00,VWS V14.00,2013-02-23 07:10:00,
2013-02-23 01:15:00,29.0,26.7,30.10,NNW,338,0.0,0.0,91,0.00,,---,0.00,VWS V14.00,2013-02-23 07:15:00,
2013-02-23 01:20:00,29.0,27.0,30.10,NNW,338,0.0,0.0,92,0.00,,---,0.00,VWS V14.00,2013-02-23 07:20:00,
2013-02-23 01:25:00,29.0,27.0,30.09,NNW,338,0.0,0.0,92,0.00,,---,0.00,VWS V14.00,2013-02-23 07:25:00,
2013-02-23 01:30:00,29.0,27.0,30.09,NNW,338,0.0,0.0,92,0.00,,---,0.00,VWS V14.00,2013-02-23 07:30:00,
2013-02-23 01:35:00,29.0,27.0,30.09,NNW,338,0.0,0.0,92,0.00,,---,0.00,VWS V14.00,2013-02-23 07:35:00,
2013-02-23 01:40:00,29.0,27.0,30.09,NNW,338,0.0,0.0,92,0.00,,---,0.00,VWS V14.00,2013-02-23 07:40:00,
2013-02-23 01:45:00,29.0,27.0,30.09,NNW,338,0.0,0.0,92,0.00,,---,0.00,VWS V14.00,2013-02-23 07:45:00,
2013-02-23 01:50:00,29.0,27.0,30.09,NNW,338,0.0,0.0,92,0.00,,---,0.00,VWS V14.00,2013-02-23 07:50:00,
2013-02-23 01:55:00,29.0,27.2,30.09,NNW,338,3.0,3.0,93,0.00,,---,0.00,VWS V14.00,2013-02-23 07:55:00,
2013-02-23 02:00:00,29.0,27.2,30.09,NNW,338,3.0,3.0,93,0.00,,---,0.00,VWS V14.00,2013-02-23 08:00:00,
2013-02-23 02:05:00,29.0,27.5,30.09,NNW,338,3.0,4.0,94,0.00,,---,0.00,VWS V14.00,2013-02-23 08:05:00,
2013-02-23 02:10:00,28.0,26.5,30.09,NNW,338,4.0,4.0,94,0.00,,---,0.00,VWS V14.00,2013-02-23 08:10:00,
2013-02-23 02:15:00,28.0,26.5,30.09,WNW,292,5.0,6.0,94,0.00,,---,0.00,VWS V14.00,2013-02-23 08:15:00,
2013-02-23 02:20:00,28.0,26.5,30.09,WNW,292,5.0,5.0,94,0.00,,---,0.00,VWS V14.00,2013-02-23 08:20:00,
2013-02-23 02:25:00,28.0,26.8,30.08,WNW,292,5.0,5.0,95,0.00,,---,0.00,VWS V14.00,2013-02-23 08:25:00,
2013-02-23 02:30:00,28.0,26.8,30.08,WNW,292,5.0,5.0,95,0.00,,---,0.00,VWS V14.00,2013-02-23 08:30:00,
2013-02-23 02:35:00,29.0,27.5,30.08,NW,315,4.0,5.0,94,0.00,,---,0.00,VWS V14.00,2013-02-23 08:35:00,
2013-02-23 02:40:00,28.0,26.5,30.08,NW,315,3.0,3.0,94,0.00,,---,0.00,VWS V14.00,2013-02-23 08:40:00,
2013-02-23 02:45:00,28.0,26.5,30.08,WNW,292,3.0,3.0,94,0.00,,---,0.00,VWS V14.00,2013-02-23 08:45:00,
2013-02-23 02:50:00,28.0,26.5,30.08,WNW,292,3.0,4.0,94,0.00,,---,0.00,VWS V14.00,2013-02-23 08:50:00,
2013-02-23 02:55:00,28.0,26.5,30.08,WNW,292,5.0,5.0,94,0.00,,---,0.00,VWS V14.00,2013-02-23 08:55:00,
2013-02-23 03:00:00,28.0,26.5,30.08,NW,315,6.0,6.0,94,0.00,,---,0.00,VWS V14.00,2013-02-23 09:00:00,
2013-02-23 03:05:00,28.0,26.5,30.07,NW,315,5.0,6.0,94,0.00,,---,0.00,VWS V14.00,2013-02-23 09:05:00,
2013-02-23 03:10:00,27.0,25.5,30.07,WNW,292,4.0,5.0,94,0.00,,---,0.00,VWS V14.00,2013-02-23 09:10:00,
2013-02-23 03:15:00,27.0,25.8,30.07,WNW,292,4.0,5.0,95,0.00,,---,0.00,VWS V14.00,2013-02-23 09:15:00,
2013-02-23 03:20:00,27.0,25.8,30.07,WNW,292,3.0,3.0,95,0.00,,---,0.00,VWS V14.00,2013-02-23 09:20:00,
2013-02-23 03:25:00,27.0,25.8,30.07,WNW,292,3.0,3.0,95,0.00,,---,0.00,VWS V14.00,2013-02-23 09:25:00,
2013-02-23 03:30:00,27.0,25.8,30.07,WNW,292,6.0,6.0,95,0.00,,---,0.00,VWS V14.00,2013-02-23 09:30:00,
2013-02-23 03:35:00,27.0,25.8,30.07,WNW,292,5.0,6.0,95,0.00,,---,0.00,VWS V14.00,2013-02-23 09:35:00,
2013-02-23 03:40:00,27.0,25.8,30.07,WNW,292,6.0,6.0,95,0.00,,---,0.00,VWS V14.00,2013-02-23 09:40:00,
2013-02-23 03:45:00,27.0,25.8,30.08,WNW,292,6.0,6.0,95,0.00,,---,0.00,VWS V14.00,2013-02-23 09:45:00,
2013-02-23 03:50:00,27.0,26.0,30.08,WNW,292,6.0,7.0,96,0.00,,---,0.00,VWS V14.00,2013-02-23 09:50:00,
2013-02-23 03:55:00,27.0,26.0,30.08,WNW,292,5.0,6.0,96,0.00,,---,0.00,VWS V14.00,2013-02-23 09:55:00,
2013-02-23 04:00:00,27.0,26.0,30.08,WNW,292,6.0,6.0,96,0.00,,---,0.00,VWS V14.00,2013-02-23 10:00:00,
2013-02-23 04:05:00,27.0,26.0,30.08,WNW,292,6.0,7.0,96,0.00,,---,0.00,VWS V14.00,2013-02-23 10:05:00,
2013-02-23 04:10:00,27.0,26.0,30.08,WNW,292,7.0,7.0,96,0.00,,---,0.00,VWS V14.00,2013-02-23 10:10:00,
2013-02-23 04:15:00,27.0,26.0,30.08,NW,315,6.0,7.0,96,0.00,,---,0.00,VWS V14.00,2013-02-23 10:15:00,
2013-02-23 04:20:00,27.0,26.0,30.08,WNW,292,6.0,6.0,96,0.00,,---,0.00,VWS V14.00,2013-02-23 10:20:00,
2013-02-23 04:25:00,27.0,25.8,30.07,NW,315,5.0,6.0,95,0.00,,---,0.00,VWS V14.00,2013-02-23 10:25:00,
2013-02-23 04:30:00,27.0,25.8,30.07,NW,315,5.0,5.0,95,0.00,,---,0.00,VWS V14.00,2013-02-23 10:30:00,
2013-02-23 04:35:00,27.0,25.8,30.08,NW,315,5.0,5.0,95,0.00,,---,0.00,VWS V14.00,2013-02-23 10:35:00,
2013-02-23 04:40:00,27.0,25.5,30.07,NW,315,7.0,10.0,94,0.00,,---,0.00,VWS V14.00,2013-02-23 10:40:00,
2013-02-23 04:45:00,27.0,25.5,30.07,NNW,338,7.0,8.0,94,0.00,,---,0.00,VWS V14.00,2013-02-23 10:45:00,
2013-02-23 04:50:00,27.0,25.2,30.07,NNW,338,5.0,7.0,93,0.00,,---,0.00,VWS V14.00,2013-02-23 10:50:00,
2013-02-23 04:55:00,27.0,25.2,30.07,NNW,338,8.0,8.0,93,0.00,,---,0.00,VWS V14.00,2013-02-23 10:55:00,
2013-02-23 05:00:00,27.0,25.2,30.08,NNW,338,5.0,7.0,93,0.00,,---,0.00,VWS V14.00,2013-02-23 11:00:00,
2013-02-23 05:05:00,26.0,24.3,30.08,NW,315,5.0,5.0,93,0.00,,---,0.00,VWS V14.00,2013-02-23 11:05:00,
2013-02-23 05:10:00,26.0,24.0,30.08,NNW,338,5.0,5.0,92,0.00,,---,0.00,VWS V14.00,2013-02-23 11:10:00,
2013-02-23 05:15:00,26.0,24.0,30.08,East,90,0.0,1.0,92,0.00,,---,0.00,VWS V14.00,2013-02-23 11:15:00,
2013-02-23 05:20:00,26.0,24.0,30.08,NNW,338,1.0,1.0,92,0.00,,---,0.00,VWS V14.00,2013-02-23 11:20:00,
2013-02-23 05:25:00,26.0,24.0,30.08,WNW,292,1.0,3.0,92,0.00,,---,0.00,VWS V14.00,2013-02-23 11:25:00,
2013-02-23 05:30:00,26.0,24.0,30.08,WNW,292,2.0,2.0,92,0.00,,---,0.00,VWS V14.00,2013-02-23 11:30:00,
2013-02-23 05:35:00,26.0,24.0,30.08,North,0,1.0,1.0,92,0.00,,---,0.00,VWS V14.00,2013-02-23 11:35:00,
2013-02-23 05:40:00,26.0,24.0,30.08,North,0,0.0,0.0,92,0.00,,---,0.00,VWS V14.00,2013-02-23 11:40:00,
2013-02-23 05:45:00,26.0,24.0,30.09,WNW,292,2.0,3.0,92,0.00,,---,0.00,VWS V14.00,2013-02-23 11:45:00,
2013-02-23 05:50:00,26.0,24.0,30.09,NNW,338,1.0,1.0,92,0.00,,---,0.00,VWS V14.00,2013-02-23 11:50:00,
2013-02-23 05:55:00,26.0,24.0,30.09,NW,315,1.0,3.0,92,0.00,,---,0.00,VWS V14.00,2013-02-23 11:55:00,
2013-02-23 06:00:00,26.0,24.0,30.09,South,180,0.0,1.0,92,0.00,,---,0.00,VWS V14.00,2013-02-23 12:00:00,
2013-02-23 06:05:00,25.0,23.0,30.08,NNE,22,1.0,3.0,92,0.00,,---,0.00,VWS V14.00,2013-02-23 12:05:00,
2013-02-23 06:10:00,25.0,23.3,30.08,NE,45,3.0,3.0,93,0.00,,---,0.00,VWS V14.00,2013-02-23 12:10:00,
2013-02-23 06:15:00,26.0,24.3,30.08,WNW,292,1.0,3.0,93,0.00,,---,0.00,VWS V14.00,2013-02-23 12:15:00,
2013-02-23 06:20:00,26.0,24.3,30.08,NE,45,3.0,3.0,93,0.00,,---,0.00,VWS V14.00,2013-02-23 12:20:00,
2013-02-23 06:25:00,26.0,24.3,30.08,SSW,202,1.0,2.0,93,0.00,,---,0.00,VWS V14.00,2013-02-23 12:25:00,
2013-02-23 06:30:00,25.0,23.3,30.08,SSW,202,2.0,3.0,93,0.00,,---,0.00,VWS V14.00,2013-02-23 12:30:00,
2013-02-23 06:35:00,25.0,23.3,30.08,North,0,3.0,3.0,93,0.00,,---,0.00,VWS V14.00,2013-02-23 12:35:00,
2013-02-23 06:40:00,25.0,23.3,30.08,SSW,202,0.0,0.0,93,0.00,,---,0.00,VWS V14.00,2013-02-23 12:40:00,
2013-02-23 06:45:00,25.0,23.3,30.08,NE,45,1.0,3.0,93,0.00,,---,0.00,VWS V14.00,2013-02-23 12:45:00,
2013-02-23 06:50:00,25.0,23.3,30.08,NNE,22,4.0,4.0,93,0.00,,---,0.00,VWS V14.00,2013-02-23 12:50:00,
2013-02-23 06:55:00,25.0,23.3,30.09,NE,45,3.0,3.0,93,0.00,,---,0.00,VWS V14.00,2013-02-23 12:55:00,
2013-02-23 07:00:00,25.0,23.3,30.09,NNE,22,2.0,2.0,93,0.00,,---,0.00,VWS V14.00,2013-02-23 13:00:00,
2013-02-23 07:05:00,26.0,24.3,30.08,NE,45,3.0,4.0,93,0.00,,---,0.00,VWS V14.00,2013-02-23 13:05:00,
2013-02-23 07:10:00,26.0,24.5,30.08,SW,225,0.0,1.0,94,0.00,,---,0.00,VWS V14.00,2013-02-23 13:10:00,
2013-02-23 07:15:00,27.0,25.5,30.08,East,90,1.0,1.0,94,0.00,,---,0.00,VWS V14.00,2013-02-23 13:15:00,
2013-02-23 07:20:00,27.0,25.2,30.09,SW,225,2.0,3.0,93,0.00,,---,0.00,VWS V14.00,2013-02-23 13:20:00,
2013-02-23 07:25:00,27.0,25.2,30.08,NE,45,2.0,2.0,93,0.00,,---,0.00,VWS V14.00,2013-02-23 13:25:00,
2013-02-23 07:30:00,28.0,26.0,30.09,ENE,68,0.0,1.0,92,0.00,,---,0.00,VWS V14.00,2013-02-23 13:30:00,
2013-02-23 07:35:00,28.0,26.0,30.09,South,180,0.0,0.0,92,0.00,,---,0.00,VWS V14.00,2013-02-23 13:35:00,
2013-02-23 07:40:00,28.0,25.7,30.08,NNE,22,1.0,1.0,91,0.00,,---,0.00,VWS V14.00,2013-02-23 13:40:00,
2013-02-23 07:45:00,28.0,25.7,30.09,NNW,338,5.0,5.0,91,0.00,,---,0.00,VWS V14.00,2013-02-23 13:45:00,
2013-02-23 07:50:00,28.0,25.5,30.10,North,0,3.0,3.0,90,0.00,,---,0.00,VWS V14.00,2013-02-23 13:50:00,
2013-02-23 07:55:00,28.0,25.2,30.10,NW,315,2.0,3.0,89,0.00,,---,0.00,VWS V14.00,2013-02-23 13:55:00,
2013-02-23 08:00:00,28.0,25.2,30.10,WNW,292,2.0,3.0,89,0.00,,---,0.00,VWS V14.00,2013-02-23 14:00:00,
2013-02-23 08:05:00,28.0,24.9,30.10,North,0,1.0,3.0,88,0.00,,---,0.00,VWS V14.00,2013-02-23 14:05:00,
2013-02-23 08:10:00,29.0,25.9,30.10,WNW,292,3.0,4.0,88,0.00,,---,0.00,VWS V14.00,2013-02-23 14:10:00,
2013-02-23 08:15:00,29.0,25.9,30.10,ESE,112,1.0,1.0,88,0.00,,---,0.00,VWS V14.00,2013-02-23 14:15:00,
2013-02-23 08:20:00,29.0,25.4,30.10,West,270,3.0,3.0,86,0.00,,---,0.00,VWS V14.00,2013-02-23 14:20:00,
2013-02-23 08:25:00,29.0,24.8,30.09,NW,315,3.0,3.0,84,0.00,,---,0.00,VWS V14.00,2013-02-23 14:25:00,
2013-02-23 08:30:00,30.0,26.0,30.10,WNW,292,3.0,5.0,85,0.00,,---,0.00,VWS V14.00,2013-02-23 14:30:00,
2013-02-23 08:35:00,29.0,24.5,30.09,NNE,22,3.0,5.0,83,0.00,,---,0.00,VWS V14.00,2013-02-23 14:35:00,
2013-02-23 08:40:00,30.0,25.5,30.09,NW,315,1.0,3.0,83,0.00,,---,0.00,VWS V14.00,2013-02-23 14:40:00,
2013-02-23 08:45:00,30.0,25.2,30.09,WNW,292,3.0,5.0,82,0.00,,---,0.00,VWS V14.00,2013-02-23 14:45:00,
2013-02-23 08:50:00,30.0,25.2,30.08,WSW,248,1.0,1.0,82,0.00,,---,0.00,VWS V14.00,2013-02-23 14:50:00,
2013-02-23 08:55:00,30.0,24.9,30.08,East,90,2.0,2.0,81,0.00,,---,0.00,VWS V14.00,2013-02-23 14:55:00,
2013-02-23 09:00:00,31.0,25.6,30.08,WSW,248,5.0,5.0,80,0.00,,---,0.00,VWS V14.00,2013-02-23 15:00:00,
2013-02-23 09:05:00,31.0,25.3,30.08,NNW,338,3.0,3.0,79,0.00,,---,0.00,VWS V14.00,2013-02-23 15:05:00,
2013-02-23 09:10:00,31.0,25.0,30.08,NNW,338,3.0,5.0,78,0.00,,---,0.00,VWS V14.00,2013-02-23 15:10:00,
2013-02-23 09:15:00,31.0,25.0,30.08,West,270,4.0,4.0,78,0.00,,---,0.00,VWS V14.00,2013-02-23 15:15:00,
2013-02-23 09:20:00,31.0,24.6,30.08,NW,315,4.0,4.0,77,0.00,,---,0.00,VWS V14.00,2013-02-23 15:20:00,
2013-02-23 09:25:00,31.0,24.6,30.07,NNW,338,4.0,5.0,77,0.00,,---,0.00,VWS V14.00,2013-02-23 15:25:00,
2013-02-23 09:30:00,31.0,24.6,30.08,NE,45,5.0,5.0,77,0.00,,---,0.00,VWS V14.00,2013-02-23 15:30:00,
2013-02-23 09:35:00,32.0,25.9,30.08,NW,315,3.0,4.0,78,0.00,,---,0.00,VWS V14.00,2013-02-23 15:35:00,
2013-02-23 09:40:00,32.0,25.3,30.08,NW,315,3.0,3.0,76,0.00,,---,0.00,VWS V14.00,2013-02-23 15:40:00,
2013-02-23 09:45:00,32.0,25.3,30.08,WNW,292,4.0,5.0,76,0.00,,---,0.00,VWS V14.00,2013-02-23 15:45:00,
2013-02-23 09:50:00,32.0,25.3,30.08,East,90,1.0,2.0,76,0.00,,---,0.00,VWS V14.00,2013-02-23 15:50:00,
2013-02-23 09:55:00,32.0,25.3,30.08,North,0,3.0,3.0,76,0.00,,---,0.00,VWS V14.00,2013-02-23 15:55:00,
2013-02-23 10:00:00,32.0,25.0,30.08,NW,315,5.0,5.0,75,0.00,,---,0.00,VWS V14.00,2013-02-23 16:00:00,
2013-02-23 10:05:00,32.0,25.0,30.07,NW,315,5.0,5.0,75,0.00,,---,0.00,VWS V14.00,2013-02-23 16:05:00,
2013-02-23 10:10:00,32.0,24.7,30.07,NW,315,1.0,2.0,74,0.00,,---,0.00,VWS V14.00,2013-02-23 16:10:00,
2013-02-23 10:15:00,33.0,25.6,30.07,WNW,292,6.0,7.0,74,0.00,,---,0.00,VWS V14.00,2013-02-23 16:15:00,
2013-02-23 10:20:00,34.0,26.6,30.06,NE,45,3.0,3.0,74,0.00,,---,0.00,VWS V14.00,2013-02-23 16:20:00,
2013-02-23 10:25:00,34.0,25.9,30.06,NW,315,3.0,6.0,72,0.00,,---,0.00,VWS V14.00,2013-02-23 16:25:00,
2013-02-23 10:30:00,34.0,25.3,30.06,WNW,292,4.0,5.0,70,0.00,,---,0.00,VWS V14.00,2013-02-23 16:30:00,
2013-02-23 10:35:00,34.0,24.9,30.06,NW,315,3.0,3.0,69,0.00,,---,0.00,VWS V14.00,2013-02-23 16:35:00,
2013-02-23 10:40:00,34.0,25.3,30.07,North,0,4.0,5.0,70,0.00,,---,0.00,VWS V14.00,2013-02-23 16:40:00,
2013-02-23 10:45:00,34.0,25.3,30.07,NW,315,3.0,3.0,70,0.00,,---,0.00,VWS V14.00,2013-02-23 16:45:00,
2013-02-23 10:50:00,34.0,25.3,30.07,NW,315,3.0,4.0,70,0.00,,---,0.00,VWS V14.00,2013-02-23 16:50:00,
2013-02-23 10:55:00,35.0,25.5,30.07,North,0,3.0,4.0,68,0.00,,---,0.00,VWS V14.00,2013-02-23 16:55:00,
2013-02-23 11:00:00,36.0,26.5,30.07,WNW,292,0.0,0.0,68,0.00,,---,0.00,VWS V14.00,2013-02-23 17:00:00,
2013-02-23 11:05:00,36.0,26.8,30.07,West,270,6.0,6.0,69,0.00,,---,0.00,VWS V14.00,2013-02-23 17:05:00,
2013-02-23 11:10:00,36.0,26.8,30.07,NNW,338,2.0,2.0,69,0.00,,---,0.00,VWS V14.00,2013-02-23 17:10:00,
2013-02-23 11:15:00,36.0,27.5,30.07,NNW,338,5.0,14.0,71,0.00,,---,0.00,VWS V14.00,2013-02-23 17:15:00,
2013-02-23 11:20:00,36.0,26.8,30.07,WNW,292,7.0,7.0,69,0.00,,---,0.00,VWS V14.00,2013-02-23 17:20:00,
2013-02-23 11:25:00,35.0,25.9,30.07,WSW,248,5.0,5.0,69,0.00,,---,0.00,VWS V14.00,2013-02-23 17:25:00,
2013-02-23 11:30:00,35.0,25.9,30.07,WSW,248,3.0,5.0,69,0.00,,---,0.00,VWS V14.00,2013-02-23 17:30:00,
2013-02-23 11:35:00,35.0,25.5,30.07,SSE,158,3.0,6.0,68,0.00,,---,0.00,VWS V14.00,2013-02-23 17:35:00,
2013-02-23 11:40:00,37.0,27.8,30.06,WSW,248,5.0,6.0,69,0.00,,---,0.00,VWS V14.00,2013-02-23 17:40:00,
2013-02-23 11:45:00,36.0,26.5,30.06,SSW,202,6.0,8.0,68,0.00,,---,0.00,VWS V14.00,2013-02-23 17:45:00,
2013-02-23 11:50:00,37.0,26.3,30.06,SSW,202,4.0,5.0,65,0.00,,---,0.00,VWS V14.00,2013-02-23 17:50:00,
2013-02-23 11:55:00,37.0,26.3,30.06,SSW,202,6.0,7.0,65,0.00,,---,0.00,VWS V14.00,2013-02-23 17:55:00,
2013-02-23 12:00:00,37.0,26.7,30.06,SSW,202,5.0,5.0,66,0.00,,---,0.00,VWS V14.00,2013-02-23 18:00:00,
2013-02-23 12:05:00,37.0,27.1,30.05,West,270,8.0,10.0,67,0.00,,---,0.00,VWS V14.00,2013-02-23 18:05:00,
2013-02-23 12:10:00,37.0,25.6,30.04,SW,225,5.0,7.0,63,0.00,,---,0.00,VWS V14.00,2013-02-23 18:10:00,
2013-02-23 12:15:00,37.0,24.8,30.04,WSW,248,3.0,7.0,61,0.00,,---,0.00,VWS V14.00,2013-02-23 18:15:00,
2013-02-23 12:20:00,37.0,24.4,30.05,West,270,6.0,8.0,60,0.00,,---,0.00,VWS V14.00,2013-02-23 18:20:00,
2013-02-23 12:25:00,37.0,24.4,30.05,WNW,292,6.0,7.0,60,0.00,,---,0.00,VWS V14.00,2013-02-23 18:25:00,
2013-02-23 12:30:00,37.0,25.2,30.04,WNW,292,3.0,6.0,62,0.00,,---,0.00,VWS V14.00,2013-02-23 18:30:00,
2013-02-23 12:35:00,38.0,26.1,30.04,SSW,202,5.0,6.0,62,0.00,,---,0.00,VWS V14.00,2013-02-23 18:35:00,
2013-02-23 12:40:00,39.0,27.5,30.03,WSW,248,5.0,7.0,63,0.00,,---,0.00,VWS V14.00,2013-02-23 18:40:00,
2013-02-23 12:45:00,39.0,27.1,30.03,SW,225,2.0,6.0,62,0.00,,---,0.00,VWS V14.00,2013-02-23 18:45:00,
2013-02-23 12:50:00,39.0,27.5,30.02,SSW,202,5.0,7.0,63,0.00,,---,0.00,VWS V14.00,2013-02-23 18:50:00,
2013-02-23 12:55:00,39.0,27.1,30.02,SW,225,1.0,5.0,62,0.00,,---,0.00,VWS V14.00,2013-02-23 18:55:00,
2013-02-23 13:00:00,40.0,28.4,30.02,WNW,292,7.0,8.0,63,0.00,,---,0.00,VWS V14.00,2013-02-23 19:00:00,
2013-02-23 13:05:00,40.0,28.4,30.02,WNW,292,2.0,5.0,63,0.00,,---,0.00,VWS V14.00,2013-02-23 19:05:00,
2013-02-23 13:10:00,40.0,27.6,30.02,WNW,292,3.0,6.0,61,0.00,,---,0.00,VWS V14.00,2013-02-23 19:10:00,
2013-02-23 13:15:00,40.0,27.6,30.02,SSW,202,6.0,8.0,61,0.00,,---,0.00,VWS V14.00,2013-02-23 19:15:00,
2013-02-23 13:20:00,40.0,28.0,30.01,SW,225,5.0,8.0,62,0.00,,---,0.00,VWS V14.00,2013-02-23 19:20:00,
2013-02-23 13:25:00,39.0,26.3,30.01,WNW,292,6.0,8.0,60,0.00,,---,0.00,VWS V14.00,2013-02-23 19:25:00,
2013-02-23 13:30:00,40.0,27.6,30.01,West,270,8.0,11.0,61,0.00,,---,0.00,VWS V14.00,2013-02-23 19:30:00,
2013-02-23 13:35:00,40.0,27.6,30.01,WNW,292,9.0,10.0,61,0.00,,---,0.00,VWS V14.00,2013-02-23 19:35:00,
2013-02-23 13:40:00,40.0,27.6,30.00,NW,315,3.0,5.0,61,0.00,,---,0.00,VWS V14.00,2013-02-23 19:40:00,
2013-02-23 13:45:00,42.0,29.9,30.00,SW,225,2.0,5.0,62,0.00,,---,0.00,VWS V14.00,2013-02-23 19:45:00,
2013-02-23 13:50:00,41.0,28.2,30.00,WNW,292,5.0,5.0,60,0.00,,---,0.00,VWS V14.00,2013-02-23 19:50:00,
2013-02-23 13:55:00,41.0,27.0,30.00,WNW,292,6.0,7.0,57,0.00,,---,0.00,VWS V14.00,2013-02-23 19:55:00,
2013-02-23 14:00:00,40.0,25.6,30.00,WNW,292,8.0,11.0,56,0.00,,---,0.00,VWS V14.00,2013-02-23 20:00:00,
2013-02-23 14:05:00,41.0,28.2,30.00,WSW,248,8.0,10.0,60,0.00,,---,0.00,VWS V14.00,2013-02-23 20:05:00,
2013-02-23 14:10:00,42.0,29.1,30.00,NW,315,7.0,8.0,60,0.00,,---,0.00,VWS V14.00,2013-02-23 20:10:00,
2013-02-23 14:15:00,41.0,27.0,30.00,West,270,5.0,9.0,57,0.00,,---,0.00,VWS V14.00,2013-02-23 20:15:00,
2013-02-23 14:20:00,41.0,26.5,30.00,NE,45,2.0,6.0,56,0.00,,---,0.00,VWS V14.00,2013-02-23 20:20:00,
2013-02-23 14:25:00,42.0,27.9,30.00,WSW,248,8.0,10.0,57,0.00,,---,0.00,VWS V14.00,2013-02-23 20:25:00,
2013-02-23 14:30:00,41.0,26.1,30.00,West,270,5.0,6.0,55,0.00,,---,0.00,VWS V14.00,2013-02-23 20:30:00,
2013-02-23 14:35:00,42.0,27.0,30.00,West,270,6.0,6.0,55,0.00,,---,0.00,VWS V14.00,2013-02-23 20:35:00,
2013-02-23 14:40:00,42.0,27.0,29.99,South,180,6.0,8.0,55,0.00,,---,0.00,VWS V14.00,2013-02-23 20:40:00,
2013-02-23 14:45:00,41.0,27.0,29.99,West,270,8.0,9.0,57,0.00,,---,0.00,VWS V14.00,2013-02-23 20:45:00,
2013-02-23 14:50:00,41.0,26.5,29.99,NW,315,6.0,7.0,56,0.00,,---,0.00,VWS V14.00,2013-02-23 20:50:00,
2013-02-23 14:55:00,42.0,27.9,30.00,SW,225,5.0,6.0,57,0.00,,---,0.00,VWS V14.00,2013-02-23 20:55:00,
2013-02-23 15:00:00,42.0,27.5,30.00,South,180,6.0,6.0,56,0.00,,---,0.00,VWS V14.00,2013-02-23 21:00:00,
2013-02-23 15:05:00,42.0,28.3,30.00,WSW,248,5.0,6.0,58,0.00,,---,0.00,VWS V14.00,2013-02-23 21:05:00,
2013-02-23 15:10:00,42.0,27.5,30.00,West,270,8.0,8.0,56,0.00,,---,0.00,VWS V14.00,2013-02-23 21:10:00,
2013-02-23 15:15:00,42.0,27.5,30.00,WNW,292,5.0,6.0,56,0.00,,---,0.00,VWS V14.00,2013-02-23 21:15:00,
2013-02-23 15:20:00,43.0,28.4,30.00,WSW,248,5.0,7.0,56,0.00,,---,0.00,VWS V14.00,2013-02-23 21:20:00,
2013-02-23 15:25:00,43.0,28.0,30.00,SW,225,6.0,9.0,55,0.00,,---,0.00,VWS V14.00,2013-02-23 21:25:00,
2013-02-23 15:30:00,43.0,28.0,30.00,WSW,248,6.0,8.0,55,0.00,,---,0.00,VWS V14.00,2013-02-23 21:30:00,
2013-02-23 15:35:00,42.0,26.6,30.00,WSW,248,6.0,10.0,54,0.00,,---,0.00,VWS V14.00,2013-02-23 21:35:00,
2013-02-23 15:40:00,43.0,28.0,30.00,WSW,248,3.0,4.0,55,0.00,,---,0.00,VWS V14.00,2013-02-23 21:40:00,
2013-02-23 15:45:00,43.0,28.0,30.00,WSW,248,3.0,8.0,55,0.00,,---,0.00,VWS V14.00,2013-02-23 21:45:00,
2013-02-23 15:50:00,43.0,28.0,29.99,West,270,6.0,6.0,55,0.00,,---,0.00,VWS V14.00,2013-02-23 21:50:00,
2013-02-23 15:55:00,43.0,27.0,29.99,SW,225,2.0,4.0,53,0.00,,---,0.00,VWS V14.00,2013-02-23 21:55:00,
2013-02-23 16:00:00,43.0,27.5,29.99,WNW,292,3.0,6.0,54,0.00,,---,0.00,VWS V14.00,2013-02-23 22:00:00,
2013-02-23 16:05:00,43.0,27.5,29.99,SW,225,4.0,5.0,54,0.00,,---,0.00,VWS V14.00,2013-02-23 22:05:00,
2013-02-23 16:10:00,43.0,28.0,29.99,SW,225,5.0,8.0,55,0.00,,---,0.00,VWS V14.00,2013-02-23 22:10:00,
2013-02-23 16:15:00,42.0,26.6,29.99,WNW,292,4.0,5.0,54,0.00,,---,0.00,VWS V14.00,2013-02-23 22:15:00,
2013-02-23 16:20:00,43.0,27.0,29.99,SW,225,0.0,0.0,53,0.00,,---,0.00,VWS V14.00,2013-02-23 22:20:00,
2013-02-23 16:25:00,43.0,27.5,29.99,SW,225,3.0,3.0,54,0.00,,---,0.00,VWS V14.00,2013-02-23 22:25:00,
2013-02-23 16:30:00,43.0,27.0,29.99,WNW,292,3.0,3.0,53,0.00,,---,0.00,VWS V14.00,2013-02-23 22:30:00,
2013-02-23 16:35:00,43.0,27.5,29.99,West,270,3.0,3.0,54,0.00,,---,0.00,VWS V14.00,2013-02-23 22:35:00,
2013-02-23 16:40:00,43.0,27.5,29.99,SW,225,7.0,7.0,54,0.00,,---,0.00,VWS V14.00,2013-02-23 22:40:00,
2013-02-23 16:45:00,42.0,27.0,29.99,WSW,248,6.0,6.0,55,0.00,,---,0.00,VWS V14.00,2013-02-23 22:45:00,
2013-02-23 16:50:00,42.0,27.0,29.99,West,270,5.0,5.0,55,0.00,,---,0.00,VWS V14.00,2013-02-23 22:50:00,
2013-02-23 16:55:00,42.0,27.0,29.99,WSW,248,5.0,6.0,55,0.00,,---,0.00,VWS V14.00,2013-02-23 22:55:00,
2013-02-23 17:00:00,42.0,27.0,29.99,WSW,248,4.0,5.0,55,0.00,,---,0.00,VWS V14.00,2013-02-23 23:00:00,
2013-02-23 17:05:00,42.0,27.0,29.98,WSW,248,3.0,4.0,55,0.00,,---,0.00,VWS V14.00,2013-02-23 23:05:00,
2013-02-23 17:10:00,42.0,27.0,29.99,West,270,3.0,4.0,55,0.00,,---,0.00,VWS V14.00,2013-02-23 23:10:00,
2013-02-23 17:15:00,41.0,26.5,29.99,WSW,248,3.0,3.0,56,0.00,,---,0.00,VWS V14.00,2013-02-23 23:15:00,
2013-02-23 17:20:00,41.0,26.1,29.99,WSW,248,3.0,4.0,55,0.00,,---,0.00,VWS V14.00,2013-02-23 23:20:00,
2013-02-23 17:25:00,41.0,26.1,29.99,WSW,248,3.0,4.0,55,0.00,,---,0.00,VWS V14.00,2013-02-23 23:25:00,
2013-02-23 17:30:00,41.0,27.0,29.99,WSW,248,3.0,3.0,57,0.00,,---,0.00,VWS V14.00,2013-02-23 23:30:00,
2013-02-23 17:35:00,41.0,27.0,29.99,West,270,3.0,4.0,57,0.00,,---,0.00,VWS V14.00,2013-02-23 23:35:00,
2013-02-23 17:40:00,40.0,26.8,30.00,WSW,248,5.0,5.0,59,0.00,,---,0.00,VWS V14.00,2013-02-23 23:40:00,
2013-02-23 17:45:00,40.0,26.8,30.00,West,270,5.0,6.0,59,0.00,,---,0.00,VWS V14.00,2013-02-23 23:45:00,
2013-02-23 17:50:00,40.0,27.2,30.00,WSW,248,5.0,6.0,60,0.00,,---,0.00,VWS V14.00,2013-02-23 23:50:00,
2013-02-23 17:55:00,40.0,27.2,30.01,WSW,248,5.0,6.0,60,0.00,,---,0.00,VWS V14.00,2013-02-23 23:55:00,
2013-02-23 18:00:00,40.0,27.2,30.01,WSW,248,5.0,5.0,60,0.00,,---,0.00,VWS V14.00,2013-02-24 00:00:00,
2013-02-23 18:05:00,40.0,27.2,30.01,WSW,248,5.0,6.0,60,0.00,,---,0.00,VWS V14.00,2013-02-24 00:05:00,
2013-02-23 18:10:00,40.0,27.6,30.02,WSW,248,5.0,6.0,61,0.00,,---,0.00,VWS V14.00,2013-02-24 00:10:00,
2013-02-23 18:15:00,40.0,27.6,30.02,WSW,248,5.0,6.0,61,0.00,,---,0.00,VWS V14.00,2013-02-24 00:15:00,
2013-02-23 18:20:00,40.0,28.0,30.02,WSW,248,5.0,5.0,62,0.00,,---,0.00,VWS V14.00,2013-02-24 00:20:00,
2013-02-23 18:25:00,39.0,27.9,30.02,West,270,4.0,5.0,64,0.00,,---,0.00,VWS V14.00,2013-02-24 00:25:00,
2013-02-23 18:30:00,38.0,27.3,30.02,WNW,292,6.0,6.0,65,0.00,,---,0.00,VWS V14.00,2013-02-24 00:30:00,
2013-02-23 18:35:00,38.0,27.7,30.02,WNW,292,6.0,7.0,66,0.00,,---,0.00,VWS V14.00,2013-02-24 00:35:00,
2013-02-23 18:40:00,38.0,28.0,30.02,WNW,292,4.0,4.0,67,0.00,,---,0.00,VWS V14.00,2013-02-24 00:40:00,
2013-02-23 18:45:00,38.0,28.4,30.02,WNW,292,2.0,4.0,68,0.00,,---,0.00,VWS V14.00,2013-02-24 00:45:00,
2013-02-23 18:50:00,38.0,28.4,30.03,WNW,292,3.0,3.0,68,0.00,,---,0.00,VWS V14.00,2013-02-24 00:50:00,
2013-02-23 18:55:00,38.0,28.0,30.02,NNW,338,3.0,4.0,67,0.00,,---,0.00,VWS V14.00,2013-02-24 00:55:00,
2013-02-23 19:00:00,38.0,28.4,30.03,NW,315,4.0,4.0,68,0.00,,---,0.00,VWS V14.00,2013-02-24 01:00:00,
2013-02-23 19:05:00,37.0,27.8,30.03,NW,315,5.0,5.0,69,0.00,,---,0.00,VWS V14.00,2013-02-24 01:05:00,
2013-02-23 19:10:00,37.0,28.1,30.03,WNW,292,3.0,5.0,70,0.00,,---,0.00,VWS V14.00,2013-02-24 01:10:00,
2013-02-23 19:15:00,37.0,28.1,30.03,SW,225,1.0,3.0,70,0.00,,---,0.00,VWS V14.00,2013-02-24 01:15:00,
2013-02-23 19:20:00,37.0,28.1,30.03,West,270,2.0,3.0,70,0.00,,---,0.00,VWS V14.00,2013-02-24 01:20:00,
2013-02-23 19:25:00,37.0,27.8,30.03,SW,225,1.0,3.0,69,0.00,,---,0.00,VWS V14.00,2013-02-24 01:25:00,
2013-02-23 19:30:00,37.0,27.4,30.02,NE,45,4.0,5.0,68,0.00,,---,0.00,VWS V14.00,2013-02-24 01:30:00,
2013-02-23 19:35:00,37.0,27.4,30.03,West,270,1.0,3.0,68,0.00,,---,0.00,VWS V14.00,2013-02-24 01:35:00,
2013-02-23 19:40:00,37.0,27.4,30.03,SSE,158,0.0,2.0,68,0.00,,---,0.00,VWS V14.00,2013-02-24 01:40:00,
2013-02-23 19:45:00,36.0,26.5,30.03,NW,315,3.0,4.0,68,0.00,,---,0.00,VWS V14.00,2013-02-24 01:45:00,
2013-02-23 19:50:00,36.0,26.8,30.03,SE,135,3.0,3.0,69,0.00,,---,0.00,VWS V14.00,2013-02-24 01:50:00,
2013-02-23 19:55:00,36.0,27.2,30.03,West,270,4.0,4.0,70,0.00,,---,0.00,VWS V14.00,2013-02-24 01:55:00,
2013-02-23 20:00:00,36.0,27.5,30.03,SW,225,1.0,3.0,71,0.00,,---,0.00,VWS V14.00,2013-02-24 02:00:00,
2013-02-23 20:05:00,35.0,26.6,30.03,SSW,202,1.0,3.0,71,0.00,,---,0.00,VWS V14.00,2013-02-24 02:05:00,
2013-02-23 20:10:00,35.0,26.6,30.04,WNW,292,3.0,4.0,71,0.00,,---,0.00,VWS V14.00,2013-02-24 02:10:00,
2013-02-23 20:15:00,35.0,26.6,30.04,NNW,338,4.0,6.0,71,0.00,,---,0.00,VWS V14.00,2013-02-24 02:15:00,
2013-02-23 20:20:00,34.0,26.3,30.04,NNW,338,5.0,6.0,73,0.00,,---,0.00,VWS V14.00,2013-02-24 02:20:00,
2013-02-23 20:24:00,34.0,26.6,30.04,South,180,1.0,2.0,74,0.00,,---,0.00,VWS V14.00,2013-02-24 02:24:00,
2013-02-23 20:29:00,34.0,26.6,30.05,NW,315,1.0,4.0,74,0.00,,---,0.00,VWS V14.00,2013-02-24 02:29:00,
2013-02-23 20:34:00,34.0,26.9,30.05,NW,315,3.0,4.0,75,0.00,,---,0.00,VWS V14.00,2013-02-24 02:34:00,
2013-02-23 20:39:00,34.0,26.9,30.05,NW,315,3.0,4.0,75,0.00,,---,0.00,VWS V14.00,2013-02-24 02:39:00,
2013-02-23 20:44:00,34.0,26.9,30.05,NNW,338,4.0,5.0,75,0.00,,---,0.00,VWS V14.00,2013-02-24 02:44:00,
2013-02-23 20:49:00,33.0,26.0,30.05,NW,315,5.0,5.0,75,0.00,,---,0.00,VWS V14.00,2013-02-24 02:49:00,
2013-02-23 20:54:00,33.0,25.6,30.05,NNW,338,3.0,4.0,74,0.00,,---,0.00,VWS V14.00,2013-02-24 02:54:00,
2013-02-23 20:59:00,33.0,26.0,30.05,NW,315,1.0,3.0,75,0.00,,---,0.00,VWS V14.00,2013-02-24 02:59:00,
2013-02-23 21:04:00,33.0,26.0,30.04,ENE,68,0.0,1.0,75,0.00,,---,0.00,VWS V14.00,2013-02-24 03:04:00,
2013-02-23 21:09:00,33.0,26.3,30.05,East,90,0.0,0.0,76,0.00,,---,0.00,VWS V14.00,2013-02-24 03:09:00,
2013-02-23 21:14:00,33.0,26.3,30.05,NW,315,3.0,4.0,76,0.00,,---,0.00,VWS V14.00,2013-02-24 03:14:00,
2013-02-23 21:19:00,33.0,26.0,30.05,NNW,338,3.0,4.0,75,0.00,,---,0.00,VWS V14.00,2013-02-24 03:19:00,
2013-02-23 21:24:00,33.0,26.0,30.05,NW,315,4.0,5.0,75,0.00,,---,0.00,VWS V14.00,2013-02-24 03:24:00,
2013-02-23 21:29:00,33.0,26.0,30.05,WNW,292,1.0,5.0,75,0.00,,---,0.00,VWS V14.00,2013-02-24 03:29:00,
2013-02-23 21:34:00,33.0,26.0,30.05,SSE,158,1.0,3.0,75,0.00,,---,0.00,VWS V14.00,2013-02-24 03:34:00,
2013-02-23 21:39:00,33.0,26.3,30.05,WNW,292,1.0,2.0,76,0.00,,---,0.00,VWS V14.00,2013-02-24 03:39:00,
2013-02-23 21:44:00,32.0,25.3,30.05,NW,315,0.0,1.0,76,0.00,,---,0.00,VWS V14.00,2013-02-24 03:44:00,
2013-02-23 21:49:00,32.0,25.6,30.05,South,180,1.0,2.0,77,0.00,,---,0.00,VWS V14.00,2013-02-24 03:49:00,
2013-02-23 21:54:00,32.0,25.6,30.05,NW,315,3.0,3.0,77,0.00,,---,0.00,VWS V14.00,2013-02-24 03:54:00,
2013-02-23 21:59:00,31.0,25.0,30.05,South,180,0.0,1.0,78,0.00,,---,0.00,VWS V14.00,2013-02-24 03:59:00,
2013-02-23 22:04:00,31.0,25.3,30.06,WSW,248,3.0,3.0,79,0.00,,---,0.00,VWS V14.00,2013-02-24 04:04:00,
2013-02-23 22:09:00,31.0,25.3,30.05,WSW,248,3.0,3.0,79,0.00,,---,0.00,VWS V14.00,2013-02-24 04:09:00,
2013-02-23 22:14:00,31.0,25.3,30.05,West,270,1.0,3.0,79,0.00,,---,0.00,VWS V14.00,2013-02-24 04:14:00,
2013-02-23 22:19:00,31.0,25.6,30.04,West,270,0.0,3.0,80,0.00,,---,0.00,VWS V14.00,2013-02-24 04:19:00,
2013-02-23 22:24:00,31.0,25.6,30.05,SSW,202,3.0,3.0,80,0.00,,---,0.00,VWS V14.00,2013-02-24 04:24:00,
2013-02-23 22:29:00,31.0,25.6,30.06,NNW,338,3.0,4.0,80,0.00,,---,0.00,VWS V14.00,2013-02-24 04:29:00,
2013-02-23 22:34:00,30.0,24.6,30.05,NNW,338,3.0,4.0,80,0.00,,---,0.00,VWS V14.00,2013-02-24 04:34:00,
2013-02-23 22:39:00,31.0,25.9,30.05,NNE,22,1.0,2.0,81,0.00,,---,0.00,VWS V14.00,2013-02-24 04:39:00,
2013-02-23 22:44:00,31.0,25.9,30.04,NE,45,3.0,4.0,81,0.00,,---,0.00,VWS V14.00,2013-02-24 04:44:00,
2013-02-23 22:49:00,31.0,25.9,30.05,NE,45,3.0,5.0,81,0.00,,---,0.00,VWS V14.00,2013-02-24 04:49:00,
2013-02-23 22:54:00,31.0,25.6,30.04,NE,45,4.0,5.0,80,0.00,,---,0.00,VWS V14.00,2013-02-24 04:54:00,
2013-02-23 22:59:00,31.0,25.3,30.04,NE,45,4.0,5.0,79,0.00,,---,0.00,VWS V14.00,2013-02-24 04:59:00,
2013-02-23 23:00:00,31.0,25.3,30.04,NNE,22,4.0,5.0,79,0.00,,---,0.00,VWS V14.00,2013-02-24 05:00:00,
2013-02-23 23:05:00,31.0,25.3,30.04,NNE,22,3.0,3.0,79,0.00,,---,0.00,VWS V14.00,2013-02-24 05:05:00,
2013-02-23 23:10:00,31.0,25.3,30.05,North,0,1.0,1.0,79,0.00,,---,0.00,VWS V14.00,2013-02-24 05:10:00,
2013-02-23 23:15:00,30.0,24.3,30.05,WNW,292,1.0,1.0,79,0.00,,---,0.00,VWS V14.00,2013-02-24 05:15:00,
2013-02-23 23:20:00,30.0,24.3,30.05,NW,315,1.0,2.0,79,0.00,,---,0.00,VWS V14.00,2013-02-24 05:20:00,
2013-02-23 23:25:00,30.0,24.6,30.05,North,0,1.0,3.0,80,0.00,,---,0.00,VWS V14.00,2013-02-24 05:25:00,
2013-02-23 23:30:00,30.0,24.6,30.05,NW,315,0.0,1.0,80,0.00,,---,0.00,VWS V14.00,2013-02-24 05:30:00,
2013-02-23 23:35:00,30.0,24.6,30.05,NE,45,2.0,3.0,80,0.00,,---,0.00,VWS V14.00,2013-02-24 05:35:00,
2013-02-23 23:40:00,30.0,24.6,30.04,East,90,1.0,3.0,80,0.00,,---,0.00,VWS V14.00,2013-02-24 05:40:00,
2013-02-23 23:45:00,30.0,24.9,30.04,ENE,68,1.0,2.0,81,0.00,,---,0.00,VWS V14.00,2013-02-24 05:45:00,
2013-02-23 23:50:00,30.0,24.9,30.04,NE,45,3.0,3.0,81,0.00,,---,0.00,VWS V14.00,2013-02-24 05:50:00,
2013-02-23 23:55:00,30.0,25.2,30.04,NNE,22,2.0,3.0,82,0.00,,---,0.00,VWS V14.00,2013-02-24 05:55:00,